Flag Weather past 2 weeks in Hilversum, Netherlands

Now
44 °F

Fog.


Feels Like: 39 °F
Forecast: 30 / 38 °F
Wind: 7 mph from East

Location: De Bilt

Current Time: Nov 28, 2014 at 8:29:14 PM

Latest Report: Nov 28, 2014 at 7:00 PM


Visibility: 5 mi

Pressure: 29.85 "Hg

Humidity: 79%

Dew point: 37 °F

Location of HilversumLocation

Historic Weather in Hilversum — Graph

°F

Hilversum temperature yesterday

Maximum temperature yesterday: 48 °F (at 2:00 PM)
Minimum temperature yesterday: 42 °F (at 12:00 AM)
Average temperature yesterday: 45 °F

Past Weeks' High & Low Weather Summary

 TemperatureHumidityPressure
High56 °F (Nov 23, 3:00 PM)99% (Nov 16, 5:00 AM)30.35 "Hg (Nov 16, 5:00 AM)
Low30 °F (Nov 25, 7:00 AM)64% (Nov 24, 1:00 PM)29.47 "Hg (Nov 16, 5:00 PM)
Average46 °F88%29.94 "Hg
* Reported Nov 13 7:00 PM — Nov 28 7:00 PM, Hilversum, Weather by CustomWeather, © 2014

Note: Actual official high and low records may vary slightly from our data, if they occured in-between our weather recording intervals... More about our weather records

Advertising

Hilversum weather history for previous 24 hours

 ConditionsComfort  
Time TempWeatherWind HumidityBarometerVisibility
7:00 PM
Nov 28
44 °FFog.7 mph79%29.85 "Hg5 mi
6:00 PM43 °FFog.7 mph83%29.85 "Hg5 mi
5:00 PM44 °FFog.6 mph82%29.82 "Hg5 mi
4:00 PM45 °FPassing clouds.6 mph83%29.81 "Hg5 mi
3:00 PM47 °FOvercast.6 mph81%29.77 "Hg6 mi
2:00 PM48 °FPassing clouds.6 mph78%29.77 "Hg7 mi
1:00 PM48 °FOvercast.6 mph80%29.78 "Hg6 mi
12:00 PM46 °FDrizzle. Overcast.7 mph82%29.78 "Hg5 mi
11:00 AM45 °FRain showers. Overcast.5 mph86%29.79 "Hg4 mi
10:00 AM44 °FFog.6 mph89%29.78 "Hg4 mi
9:00 AM43 °FFog.5 mph92%29.77 "Hg3 mi
8:00 AM43 °FFog.5 mph90%29.77 "Hg3 mi
7:00 AM43 °FFog.6 mph95%29.76 "Hg2 mi
6:00 AM43 °FFog.7 mph95%29.75 "Hg2 mi
5:00 AM43 °FFog.6 mph93%29.74 "Hg2 mi
4:00 AM43 °FFog.3 mph93%29.74 "Hg3 mi
3:00 AM44 °FFog.5 mph92%29.74 "Hg4 mi
2:00 AM44 °FFog.3 mph94%29.73 "Hg3 mi
1:00 AM44 °FFog.6 mph93%29.73 "Hg3 mi
12:00 AM44 °FLow clouds.5 mph93%29.73 "Hg3 mi
11:00 PM
Nov 27
45 °FDrizzle. Low clouds.5 mph95%29.73 "Hg2 mi
10:00 PM45 °FDrizzle. Low clouds.5 mph96%29.73 "Hg1 mi
9:00 PM46 °FLow clouds.5 mph93%29.73 "Hg3 mi
8:00 PM46 °FDrizzle. Low clouds.5 mph95%29.72 "Hg2 mi
Weather by CustomWeather, © 2014

See weather overviewHow to use our weather pages